When you browse on this site, cookies collect data to enhance your experience and personalize the content and advertising you see.
Visit our Privacy Policy to learn more. By continuing to use the site, you agree to this use of cookies and data.
  • In Österreich
  • Länderverzeichnis
  • Für 7 Tage
  • Wassertemperatur
  • Satellitenkarten
  • Wetterkarte
  • News
  • Widgets
  • user-avatar
    Anmelden

    Stündliche Wetter Rivne

    Heute, 25 April, Donnerstag

    Zeit Temperatur Niederschläge Wind Luftdruck Luftfeuchtigkeit
    00:00 +8°C° 0 mm 2 m/S 766 mmHg 77%
    01:00 +8°C° 0 mm 2 m/S 766 mmHg 79%
    02:00 +8°C° 0 mm 1 m/S 765 mmHg 81%
    03:00 +8°C° 0 mm 1 m/S 765 mmHg 80%
    04:00 +8°C° 0 mm 1 m/S 765 mmHg 80%
    05:00 +8°C° 0 mm 1 m/S 765 mmHg 80%
    06:00 +10°C° 0 mm 1 m/S 765 mmHg 70%
    07:00 +13°C° 0 mm 1 m/S 765 mmHg 61%
    08:00 +15°C° 0 mm 1 m/S 765 mmHg 51%
    09:00 +18°C° 0 mm 1 m/S 765 mmHg 45%
    10:00 +19°C° 0 mm 2 m/S 765 mmHg 38%
    11:00 +20°C° 0 mm 2 m/S 766 mmHg 32%
    12:00 +21°C° 0 mm 2 m/S 765 mmHg 31%
    13:00 +21°C° 0 mm 2 m/S 765 mmHg 30%
    14:00 +23°C° 0 mm 2 m/S 765 mmHg 28%
    15:00 +21°C° 0 mm 2 m/S 765 mmHg 32%
    16:00 +21°C° 0 mm 2 m/S 764 mmHg 36%
    17:00 +20°C° 0 mm 2 m/S 764 mmHg 40%
    18:00 +18°C° 0 mm 2 m/S 764 mmHg 48%
    19:00 +16°C° 0 mm 2 m/S 764 mmHg 56%
    20:00 +12°C° 0 mm 3 m/S 764 mmHg 64%
    21:00 +12°C° 0 mm 2 m/S 764 mmHg 66%
    22:00 +12°C° 0 mm 2 m/S 763 mmHg 69%
    23:00 +10°C° 0 mm 2 m/S 763 mmHg 71%

    Morgen, 26 April, Freitag

    Zeit Temperatur Niederschläge Wind Luftdruck Luftfeuchtigkeit
    00:00 +10°C° 0 mm 2 m/S 763 mmHg 70%
    01:00 +10°C° 0 mm 1 m/S 763 mmHg 69%
    02:00 +10°C° 0 mm 1 m/S 763 mmHg 68%
    03:00 +10°C° 0 mm 1 m/S 763 mmHg 68%
    04:00 +9°C° 0 mm 1 m/S 763 mmHg 67%
    05:00 +9°C° 0 mm 1 m/S 763 mmHg 67%
    06:00 +11°C° 0 mm 1 m/S 763 mmHg 61%
    07:00 +13°C° 0 mm 1 m/S 763 mmHg 55%
    08:00 +16°C° 0 mm 1 m/S 762 mmHg 49%
    09:00 +18°C° 0 mm 1 m/S 762 mmHg 46%
    10:00 +19°C° 0 mm 2 m/S 762 mmHg 43%
    11:00 +20°C° 0 mm 2 m/S 762 mmHg 40%
    12:00 +21°C° 0 mm 2 m/S 762 mmHg 39%
    13:00 +23°C° 0 mm 2 m/S 761 mmHg 38%
    14:00 +22°C° 0 mm 3 m/S 761 mmHg 36%
    15:00 +22°C° 0 mm 3 m/S 761 mmHg 39%
    16:00 +21°C° 0 mm 3 m/S 761 mmHg 42%
    17:00 +21°C° 0 mm 3 m/S 760 mmHg 45%
    18:00 +19°C° 0 mm 3 m/S 760 mmHg 50%
    19:00 +16°C° 0 mm 2 m/S 760 mmHg 55%
    20:00 +14°C° 0 mm 2 m/S 760 mmHg 60%
    21:00 +14°C° 0 mm 2 m/S 760 mmHg 62%
    22:00 +13°C° 0 mm 1 m/S 760 mmHg 65%
    23:00 +13°C° 0 mm 1 m/S 760 mmHg 67%

    übermorgen, 27 April, Samstag

    Zeit Temperatur Niederschläge Wind Luftdruck Luftfeuchtigkeit
    00:00 +12°C° 0 mm 1 m/S 760 mmHg 67%
    01:00 +12°C° 0 mm 1 m/S 760 mmHg 68%
    02:00 +10°C° 0 mm 0 m/S 759 mmHg 68%
    03:00 +10°C° 0 mm 0 m/S 759 mmHg 68%
    04:00 +10°C° 0 mm 0 m/S 759 mmHg 68%
    05:00 +10°C° 0 mm 0 m/S 759 mmHg 68%
    06:00 +13°C° 0 mm 1 m/S 759 mmHg 63%
    07:00 +16°C° 0 mm 1 m/S 759 mmHg 57%
    08:00 +19°C° 0 mm 1 m/S 759 mmHg 51%
    09:00 +19°C° 0 mm 2 m/S 759 mmHg 48%
    10:00 +21°C° 0 mm 2 m/S 759 mmHg 45%
    11:00 +22°C° 0 mm 3 m/S 758 mmHg 42%
    12:00 +24°C° 0 mm 3 m/S 758 mmHg 41%
    13:00 +24°C° 0 mm 3 m/S 758 mmHg 40%
    14:00 +25°C° 0 mm 3 m/S 757 mmHg 39%
    15:00 +24°C° 0 mm 3 m/S 757 mmHg 43%
    16:00 +22°C° 0 mm 3 m/S 757 mmHg 47%
    17:00 +21°C° 0 mm 3 m/S 756 mmHg 51%
    18:00 +19°C° 0 mm 2 m/S 756 mmHg 57%
    19:00 +17°C° 0 mm 2 m/S 756 mmHg 62%
    20:00 +15°C° 0 mm 2 m/S 756 mmHg 68%
    21:00 +14°C° 0 mm 1 m/S 756 mmHg 71%
    22:00 +14°C° 0 mm 1 m/S 756 mmHg 73%
    23:00 +13°C° 0 mm 1 m/S 756 mmHg 76%

    28 April, Sonntag

    Zeit Temperatur Niederschläge Wind Luftdruck Luftfeuchtigkeit
    00:00 +13°C° 0 mm 1 m/S 755 mmHg 77%
    01:00 +12°C° 0 mm 1 m/S 755 mmHg 79%
    02:00 +12°C° 0 mm 1 m/S 755 mmHg 80%
    03:00 +12°C° 0 mm 1 m/S 755 mmHg 81%
    04:00 +12°C° 0 mm 1 m/S 754 mmHg 82%
    05:00 +11°C° 0 mm 1 m/S 754 mmHg 82%
    06:00 +14°C° 0 mm 1 m/S 754 mmHg 74%
    07:00 +16°C° 0 mm 1 m/S 755 mmHg 67%
    08:00 +19°C° 0 mm 1 m/S 755 mmHg 59%
    09:00 +21°C° 0 mm 1 m/S 755 mmHg 52%
    10:00 +22°C° 0 mm 1 m/S 755 mmHg 46%
    11:00 +24°C° 0 mm 2 m/S 755 mmHg 40%
    12:00 +24°C° 0 mm 2 m/S 755 mmHg 40%
    13:00 +25°C° 0 mm 2 m/S 754 mmHg 39%
    14:00 +25°C° 0 mm 2 m/S 754 mmHg 39%
    15:00 +24°C° 0 mm 2 m/S 754 mmHg 44%
    16:00 +22°C° 0 mm 3 m/S 754 mmHg 49%
    17:00 +21°C° 0 mm 3 m/S 754 mmHg 54%
    18:00 +19°C° 0 mm 3 m/S 754 mmHg 58%
    19:00 +17°C° 0 mm 3 m/S 754 mmHg 62%
    20:00 +14°C° 0 mm 3 m/S 754 mmHg 66%
    21:00 +13°C° 0 mm 3 m/S 754 mmHg 67%
    22:00 +14°C° 0 mm 2 m/S 754 mmHg 68%
    23:00 +13°C° 0 mm 2 m/S 754 mmHg 69%

    29 April, Montag

    Zeit Temperatur Niederschläge Wind Luftdruck Luftfeuchtigkeit
    00:00 +13°C° 0 mm 2 m/S 754 mmHg 70%
    01:00 +12°C° 0 mm 1 m/S 754 mmHg 71%
    02:00 +12°C° 0 mm 1 m/S 754 mmHg 71%
    03:00 +12°C° 0 mm 1 m/S 754 mmHg 73%
    04:00 +12°C° 0 mm 1 m/S 754 mmHg 74%
    05:00 +11°C° 0 mm 1 m/S 754 mmHg 75%
    06:00 +14°C° 0 mm 1 m/S 754 mmHg 68%
    07:00 +16°C° 0 mm 1 m/S 754 mmHg 60%
    08:00 +19°C° 0 mm 1 m/S 754 mmHg 52%
    09:00 +20°C° 0 mm 2 m/S 754 mmHg 49%
    10:00 +21°C° 0 mm 2 m/S 754 mmHg 45%
    11:00 +24°C° 0 mm 2 m/S 754 mmHg 41%
    12:00 +24°C° 0 mm 3 m/S 754 mmHg 41%
    13:00 +25°C° 0 mm 3 m/S 754 mmHg 40%
    14:00 +25°C° 0 mm 3 m/S 754 mmHg 40%
    15:00 +24°C° 0 mm 3 m/S 754 mmHg 43%
    16:00 +24°C° 0 mm 3 m/S 753 mmHg 46%
    17:00 +22°C° 0 mm 3 m/S 753 mmHg 49%
    18:00 +20°C° 0 mm 2 m/S 753 mmHg 57%
    19:00 +18°C° 0 mm 2 m/S 753 mmHg 64%
    20:00 +16°C° 0 mm 1 m/S 753 mmHg 72%
    21:00 +15°C° 0 mm 1 m/S 753 mmHg 73%
    22:00 +15°C° 0 mm 1 m/S 753 mmHg 73%
    23:00 +15°C° 0 mm 1 m/S 753 mmHg 73%

    30 April, Dienstag

    Zeit Temperatur Niederschläge Wind Luftdruck Luftfeuchtigkeit
    00:00 +14°C° 0 mm 1 m/S 753 mmHg 73%
    01:00 +14°C° 0 mm 1 m/S 753 mmHg 73%
    02:00 +13°C° 0 mm 1 m/S 753 mmHg 73%
    03:00 +13°C° 0 mm 1 m/S 753 mmHg 72%
    04:00 +13°C° 0 mm 1 m/S 753 mmHg 71%
    05:00 +13°C° 0 mm 1 m/S 753 mmHg 70%
    06:00 +15°C° 0 mm 1 m/S 753 mmHg 64%
    07:00 +17°C° 0 mm 2 m/S 753 mmHg 57%
    08:00 +20°C° 0 mm 2 m/S 753 mmHg 50%
    09:00 +21°C° 0 mm 3 m/S 753 mmHg 47%
    10:00 +24°C° 0 mm 3 m/S 753 mmHg 44%
    11:00 +25°C° 0 mm 4 m/S 753 mmHg 41%
    12:00 +26°C° 0 mm 4 m/S 753 mmHg 39%
    13:00 +26°C° 0 mm 4 m/S 752 mmHg 38%
    14:00 +27°C° 0 mm 4 m/S 752 mmHg 37%
    15:00 +26°C° 0 mm 4 m/S 752 mmHg 40%
    16:00 +25°C° 0 mm 4 m/S 751 mmHg 43%
    17:00 +25°C° 0 mm 3 m/S 751 mmHg 47%
    18:00 +21°C° 0 mm 3 m/S 751 mmHg 51%
    19:00 +19°C° 0 mm 3 m/S 751 mmHg 55%
    20:00 +17°C° 0 mm 3 m/S 751 mmHg 59%
    21:00 +16°C° 0 mm 3 m/S 751 mmHg 59%
    22:00 +15°C° 0 mm 2 m/S 750 mmHg 59%
    23:00 +15°C° 0 mm 2 m/S 750 mmHg 59%
    Mehr zeigen